KE2HEH Weather Reports


time (UTC)temp
F
wind
direction
speed
knots
gust
knots
rain 1hr
in
rain 24hr
in
rain mn
in
humidity
%
barometer
mb
20260504212630 55 208 10.4 14.8 0.00 0.00 0.00 84 1011.2
20260504212127 55 191 8.7 18.2 0.00 0.00 0.00 83 1011.2
20260504211625 56 209 9.6 13.9 0.00 0.00 0.00 83 1011.2
20260504211121 56 182 9.6 19.1 0.00 0.00 0.00 83 1011.2
20260504210619 56 211 12.2 16.5 0.00 0.00 0.00 82 1011.2
20260504210114 56 185 12.2 14.8 0.00 0.00 0.00 82 1011.1
20260504205612 56 203 11.3 15.6 0.00 0.00 0.00 82 1011.2
20260504205110 56 205 11.3 16.5 0.00 0.00 0.00 81 1011.3
20260504204608 56 183 13.0 14.8 0.00 0.00 0.00 81 1011.2
20260504204107 56 189 13.0 16.5 0.00 0.00 0.00 81 1011.3
20260504203605 56 175 10.4 15.6 0.00 0.00 0.00 81 1011.2
20260504203102 56 197 9.6 13.0 0.00 0.00 0.00 81 1011.1
20260504202557 56 157 10.4 14.8 0.00 0.00 0.00 80 1011.3
20260504202054 57 207 9.6 14.8 0.00 0.00 0.00 80 1011.1
20260504201551 57 198 10.4 14.8 0.00 0.00 0.00 80 1011.3
20260504201049 57 201 7.8 14.8 0.00 0.00 0.00 80 1011.4
20260504200545 57 185 12.2 16.5 0.00 0.00 0.00 80 1011.3
20260504200042 57 257 10.4 14.8 0.00 0.00 0.00 80 1011.3
20260504195538 57 207 9.6 13.9 0.00 0.00 0.00 80 1011.4
20260504195035 57 205 9.6 16.5 0.00 0.00 0.00 80 1011.6
20260504194531 57 172 10.4 13.0 0.00 0.00 0.00 80 1011.5
20260504194027 57 182 9.6 13.9 0.00 0.00 0.00 80 1011.6
20260504193524 57 215 10.4 16.5 0.00 0.00 0.00 80 1011.5
20260504193022 57 216 10.4 19.1 0.00 0.00 0.00 80 1011.7
20260504192520 57 134 13.0 19.1 0.00 0.00 0.00 80 1012.0
20260504192018 57 196 11.3 15.6 0.00 0.00 0.00 80 1011.7
20260504191516 57 199 11.3 14.8 0.00 0.00 0.00 80 1011.8
20260504191012 57 213 9.6 16.5 0.00 0.00 0.00 80 1012.1
20260504190508 57 209 7.0 13.9 0.00 0.00 0.00 80 1012.1
20260504190004 57 208 11.3 15.6 0.00 0.00 0.00 80 1012.2
20260504185501 57 188 8.7 13.0 0.00 0.00 0.00 80 1012.2
20260504184957 57 195 7.0 13.0 0.00 0.00 0.00 80 1012.2
20260504184453 57 220 9.6 11.3 0.00 0.00 0.00 79 1012.3
20260504183949 57 194 8.7 13.9 0.00 0.00 0.00 79 1012.5
20260504183446 57 168 7.0 13.9 0.00 0.00 0.00 80 1012.3
20260504182944 57 208 8.7 13.0 0.00 0.00 0.00 80 1012.6
20260504182440 56 204 8.7 15.6 0.00 0.00 0.00 80 1012.5
20260504181938 57 227 9.6 13.9 0.00 0.00 0.00 80 1012.5
20260504181435 56 194 9.6 15.6 0.00 0.00 0.00 80 1012.6
20260504180934 57 197 10.4 15.6 0.00 0.00 0.00 80 1012.6
20260504180432 56 195 7.8 13.0 0.00 0.00 0.00 80 1012.8
20260504175930 57 180 8.7 12.2 0.00 0.00 0.00 80 1012.8
20260504175427 57 199 8.7 12.2 0.00 0.00 0.00 80 1012.9
20260504174924 57 190 7.8 13.0 0.00 0.00 0.00 81 1012.9
20260504174421 57 200 10.4 13.0 0.00 0.00 0.00 80 1012.9
20260504173919 57 211 7.0 12.2 0.00 0.00 0.00 81 1012.9
20260504173416 57 199 8.7 13.0 0.00 0.00 0.00 80 1012.9
20260504172913 57 184 7.0 13.0 0.00 0.00 0.00 81 1013.1
20260504172409 57 216 5.2 11.3 0.00 0.00 0.00 81 1013.0
20260504171905 57 185 7.8 11.3 0.00 0.00 0.00 81 1013.0
20260504171403 56 197 8.7 11.3 0.00 0.00 0.00 81 1013.1
20260504170859 56 200 7.8 12.2 0.00 0.00 0.00 81 1013.1
20260504170356 56 192 7.8 12.2 0.00 0.00 0.00 81 1013.1
20260504160315 56 231 8.7 13.9 0.00 0.00 0.00 80 1013.8
20260504150739 56 207 3.5 7.0 0.00 0.00 0.00 79 1014.4
20260504150236 55 201 5.2 7.0 0.00 0.00 0.00 79 1014.7
20260504141206 55 218 6.1 7.0 0.00 0.00 0.00 77 1014.7
20260504140702 55 206 5.2 7.8 0.00 0.00 0.00 77 1014.8
20260504140158 55 212 6.1 8.7 0.00 0.00 0.00 76 1014.6
20260504130626 54 226 7.8 11.3 0.00 0.00 0.00 73 1015.3
20260504130123 54 247 7.0 8.7 0.00 0.00 0.00 73 1015.2
20260504110514 50 232 5.2 7.8 0.00 0.00 0.00 76 1015.5
20260504100436 49 222 6.1 12.2 0.00 0.00 0.00 79 1015.2
20260504081829 51 217 3.5 8.7 0.00 0.00 0.00 72 1014.6
20260504081326 51 216 5.2 9.6 0.00 0.00 0.00 70 1014.6
20260504080822 51 219 7.0 11.3 0.00 0.00 0.00 67 1014.6
20260504080320 51 235 5.2 13.0 0.00 0.00 0.00 66 1014.7
20260504070246 52 298 4.3 8.7 0.00 0.00 0.00 67 1014.5
20260504060207 51 219 5.2 7.8 0.00 0.00 0.00 76 1014.1
20260504050635 51 220 3.5 5.2 0.00 0.00 0.00 73 1014.1
20260504050132 51 215 2.6 6.1 0.00 0.00 0.00 72 1013.7
20260504045629 51 228 3.5 8.7 0.00 0.00 0.00 72 1013.8
20260504045129 51 217 2.6 7.0 0.00 0.00 0.00 72 1013.9
20260504044627 51 255 3.5 6.1 0.00 0.00 0.00 73 1013.7
20260504044124 51 223 2.6 7.0 0.00 0.00 0.00 74 1013.7
20260504043621 51 225 2.6 5.2 0.00 0.00 0.00 74 1013.7
20260504043118 51 219 2.6 5.2 0.00 0.00 0.00 74 1013.7
20260504042615 51 215 3.5 5.2 0.00 0.00 0.00 75 1013.6
20260504042112 51 259 3.5 5.2 0.00 0.00 0.00 75 1013.7
20260504041607 51 229 2.6 3.5 0.00 0.00 0.00 74 1013.7
20260504041104 51 220 3.5 6.1 0.00 0.00 0.00 74 1013.8
20260504040602 51 219 3.5 5.2 0.00 0.00 0.00 74 1013.7
20260504040058 51 216 2.6 5.2 0.00 0.00 0.00 74 1013.5
20260504035555 51 212 1.7 5.2 0.00 0.00 0.00 73 1013.6
20260504035051 51 223 2.6 3.5 0.00 0.00 0.00 73 1013.6
20260504034549 51 212 1.7 7.0 0.00 0.00 0.00 72 1013.4
20260504034046 51 215 1.7 3.5 0.00 0.00 0.00 72 1013.5
20260504033544 51 220 3.5 5.2 0.00 0.00 0.00 73 1013.5
20260504033041 51 213 1.7 3.5 0.00 0.00 0.00 74 1013.4
20260504032538 51 214 1.7 1.7 0.00 0.00 0.00 74 1013.4
20260504032034 51 213 1.7 7.0 0.00 0.00 0.00 75 1013.5
20260504031531 51 221 3.5 6.1 0.00 0.00 0.00 74 1013.5
20260504031027 51 211 3.5 5.2 0.00 0.00 0.00 73 1013.5
20260504030525 52 213 1.7 3.5 0.00 0.00 0.00 71 1013.4
20260504030021 52 222 2.6 5.2 0.00 0.00 0.00 69 1013.4
20260504025518 52 216 2.6 5.2 0.00 0.00 0.00 67 1013.5
20260504025015 52 216 4.3 7.0 0.00 0.00 0.00 66 1013.4
20260504024512 52 203 3.5 6.1 0.00 0.00 0.00 68 1013.5
20260504024009 52 216 2.6 5.2 0.00 0.00 0.00 68 1013.4
20260504023505 52 220 2.6 3.5 0.00 0.00 0.00 70 1013.4
20260504023001 52 217 3.5 5.2 0.00 0.00 0.00 71 1013.4
20260504022457 52 208 2.6 5.2 0.00 0.00 0.00 72 1013.4
20260504021954 52 217 7.0 8.7 0.00 0.00 0.00 72 1013.4
20260504021452 52 208 4.3 7.8 0.00 0.00 0.00 72 1013.4
20260504020949 52 222 6.1 8.7 0.00 0.00 0.00 70 1013.6
20260504020445 53 216 1.7 8.7 0.00 0.00 0.00 68 1013.4
20260504015942 53 215 4.3 7.8 0.00 0.00 0.00 65 1013.2
20260504015438 53 217 5.2 9.6 0.00 0.00 0.00 63 1013.2
20260504014934 53 215 1.7 5.2 0.00 0.00 0.00 62 1013.3
20260504014430 53 213 1.7 5.2 0.00 0.00 0.00 64 1013.2
20260504013927 53 219 2.6 7.0 0.00 0.00 0.00 67 1013.1
20260504013426 54 219 3.5 6.1 0.00 0.00 0.00 67 1013.2
20260504012927 54 224 4.3 7.0 0.00 0.00 0.00 67 1012.9
20260504012425 54 220 4.3 6.1 0.00 0.00 0.00 67 1013.0
20260504011922 55 215 3.5 6.1 0.00 0.00 0.00 64 1012.9
20260504011419 55 216 3.5 7.0 0.00 0.00 0.00 61 1013.0
20260504010915 55 216 5.2 6.1 0.00 0.00 0.00 61 1012.8
20260504010411 54 224 5.2 7.8 0.00 0.00 0.00 59 1012.9
20260504005907 54 232 3.5 7.0 0.00 0.00 0.00 65 1012.9
20260504005404 54 229 2.6 6.1 0.00 0.00 0.00 62 1012.7
20260504004901 55 233 3.5 5.2 0.00 0.00 0.00 58 1012.7
20260504004400 56 217 4.3 7.0 0.00 0.00 0.00 52 1012.7
20260504003855 55 222 5.2 7.8 0.00 0.00 0.00 52 1012.4
20260504003352 55 229 4.3 6.1 0.00 0.00 0.00 49 1012.5
20260504002849 56 233 5.2 6.1 0.00 0.00 0.00 50 1012.4
20260504002346 56 213 3.5 7.8 0.00 0.00 0.00 48 1012.4
20260504001843 56 229 2.6 5.2 0.00 0.00 0.00 50 1012.3
20260504001340 57 213 4.3 7.8 0.00 0.00 0.00 42 1012.2
20260504000837 58 211 0.9 2.6 0.00 0.00 0.00 32 1012.0
20260504000334 58 264 2.6 5.2 0.00 0.00 0.00 32 1012.1
20260503235832 59 263 1.7 7.8 0.00 0.00 0.00 33 1012.0
20260503235329 59 241 2.6 2.6 0.00 0.00 0.00 33 1011.9
20260503234827 59 242 3.5 3.5 0.00 0.00 0.00 33 1011.8
20260503234324 59 230 2.6 6.1 0.00 0.00 0.00 33 1011.8
20260503233822 59 217 5.2 7.8 0.00 0.00 0.00 32 1011.8
20260503233317 59 356 5.2 7.8 0.00 0.00 0.00 32 1011.7
20260503232814 60 234 1.7 7.0 0.00 0.00 0.00 30 1011.5
20260503232312 60 232 2.6 7.8 0.00 0.00 0.00 30 1011.7
20260503231810 60 280 7.0 11.3 0.00 0.00 0.00 29 1011.5
20260503231306 60 202 6.1 12.2 0.00 0.00 0.00 29 1011.4
20260503230802 60 248 5.2 8.7 0.00 0.00 0.00 28 1011.4
20260503230300 60 266 7.0 13.0 0.00 0.00 0.00 29 1011.5
20260503225757 60 286 6.1 13.0 0.00 0.00 0.00 29 1011.4
20260503225252 60 292 7.0 13.9 0.00 0.00 0.00 28 1011.4
20260503224749 60 314 8.7 14.8 0.00 0.00 0.00 28 1011.3
20260503224247 61 314 4.3 6.1 0.00 0.00 0.00 28 1011.3
20260503223744 61 245 5.2 14.8 0.00 0.00 0.00 28 1011.4
20260503223242 61 246 7.8 11.3 0.00 0.00 0.00 27 1011.3
20260503222738 60 288 7.0 14.8 0.00 0.00 0.00 28 1011.0
20260503222236 60 343 7.0 8.7 0.00 0.00 0.00 29 1011.1
20260503221734 61 254 6.1 11.3 0.00 0.00 0.00 28 1011.2
20260503221231 60 213 6.1 15.6 0.00 0.00 0.00 28 1011.2
20260503220728 60 321 7.8 13.9 0.00 0.00 0.00 28 1011.3
20260503220225 60 268 7.0 14.8 0.00 0.00 0.00 28 1011.2
20260503215721 60 221 7.8 13.9 0.00 0.00 0.00 28 1011.1
20260503215219 60 328 9.6 13.9 0.00 0.00 0.00 29 1011.3
20260503214717 60 313 8.7 15.6 0.00 0.00 0.00 29 1011.3
20260503214213 60 267 8.7 16.5 0.00 0.00 0.00 29 1011.2
20260503213711 60 228 4.3 13.0 0.00 0.00 0.00 29 1011.4
20260503213208 60 330 9.6 16.5 0.00 0.00 0.00 29 1011.3